Lid_Strength_Index
15 12 10 11 11 13 13 13 13 12 12 10 9 8 7 6 6 6 6 5 5 5 4 4 4 3 2 2 2 1 2 2 2 1 1 1 1 1 1 1 1 1 1 1
13 11 10 11 11 10 11 10 12 12 12 9 8 7 7 6 6 7 6 5 5 4 4 4 3 4 2 2 2 1 2 2 1 1 1 1 1 1 1 1 1 2 2 2
14 12 11 13 11 11 11 10 11 13 11 9 9 8 7 7 6 6 6 5 5 5 4 4 3 3 3 2 2 2 2 2 2 1 2 1 1 1 1 1 1 1 1 2
15 13 16 11 9 9 10 10 9 10 9 8 8 7 6 7 6 5 5 5 5 4 4 3 2 2 2 2 2 2 2 2 2 2 2 2 1 2 1 1 1 1 1 2
14 15 12 10 9 10 11 11 8 9 8 8 7 6 6 6 6 5 6 4 4 3 3 3 3 2 2 2 2 2 2 2 1 1 2 2 2 2 1 1 1 1 1 1
14 15 16 11 8 6 7 12 7 7 8 8 7 10 8 7 5 5 4 5 4 3 3 3 2 2 3 3 3 3 2 2 1 1 1 2 2 2 1 2 2 1 1 1
14 15 12 9 7 6 12 11 7 7 7 8 8 7 5 3 4 4 4 3 3 3 3 3 2 2 3 3 3 2 1 1 1 1 1 1 1 1 1 2 2 2 2 1
14 15 15 7 7 10 8 6 6 6 6 8 6 5 5 4 4 4 4 3 3 3 3 2 2 2 3 3 2 1 1 1 1 1 1 1 2 1 1 2 2 2 2 2
12 11 9 7 8 6 6 6 6 6 5 5 5 5 5 4 5 5 4 4 4 3 3 2 3 2 3 2 1 1 1 2 1 1 1 1 2 2 2 2 2 2 3 3
11 9 8 7 6 5 5 5 5 4 5 5 6 6 6 6 5 5 5 4 4 3 3 3 2 3 3 1 1 1 2 2 2 2 2 1 2 2 2 2 2 3 3 3
11 9 8 8 7 5 6 6 6 5 4 5 5 5 5 6 5 5 5 4 3 3 3 4 4 3 2 2 1 2 2 2 2 2 2 2 2 2 2 1 2 2 2 2
11 9 9 9 7 5 6 7 7 7 7 6 5 5 5 5 5 5 4 4 4 4 4 3 2 2 2 1 2 2 2 2 2 2 2 2 2 2 9 9 10 11 12 8
10 9 8 7 7 7 7 6 5 4 4 5 4 4 4 4 4 5 4 4 4 3 3 2 2 2 1 1 1 2 3 2 2 4 2 2 2 3 3 4 11 11 12 12
7 7 8 7 8 5 4 4 4 4 4 4 4 3 3 4 4 3 4 3 2 2 2 2 2 2 1 1 1 2 2 6 3 2 2 2 2 2 2 3 3 3 8 10
6 6 6 6 5 5 4 4 5 5 4 4 3 4 4 4 4 4 3 2 2 2 2 2 2 2 1 1 1 2 2 2 2 2 2 3 2 2 2 2 3 3 2 7
6 5 5 6 6 5 5 5 5 5 4 4 4 4 3 3 3 3 2 2 3 4 3 2 2 2 1 1 2 2 2 4 4 3 3 3 3 3 2 2 3 3 3 2
6 7 6 6 6 5 5 4 4 4 4 4 4 3 3 3 3 3 3 2 2 2 2 2 2 2 2 2 2 2 2 2 3 2 2 2 2 2 2 2 3 3 2 2
5 6 5 5 5 5 5 4 4 4 4 3 3 3 3 4 4 3 3 3 3 3 2 2 3 3 3 3 3 3 3 3 3 3 2 2 2 2 2 2 2 3 2 2
4 5 5 4 4 4 4 4 4 3 3 3 3 4 3 3 3 3 3 3 3 3 2 2 3 3 3 3 2 2 2 2 2 2 2 3 2 2 2 2 2 2 2 2
4 4 4 4 3 4 4 4 3 3 3 3 3 3 3 3 3 3 2 3 3 2 3 3 3 3 3 3 2 2 2 2 3 3 3 3 3 3 2 4 3 2 2 2
4 4 4 4 4 3 3 4 3 4 3 3 3 3 4 3 3 3 3 4 2 2 2 2 2 3 3 3 2 2 2 2 2 2 2 2 2 2 3 3 3 2 2 2
4 4 4 4 4 4 3 3 3 3 3 3 3 3 3 3 3 3 2 3 2 4 2 2 3 3 3 3 2 2 2 2 2 2 2 2 2 3 3 3 3 3 3 2
4 4 4 4 4 4 3 3 3 3 3 3 4 4 3 3 3 3 4 2 1 3 2 2 3 4 4 3 3 2 2 2 2 2 2 2 2 3 3 3 3 2 2 2
4 4 4 3 3 4 4 4 4 3 3 3 3 3 3 3 2 2 1 2 3 4 2 2 3 4 4 2 2 2 1 2 2 3 3 5 3 3 4 3 3 3 2 3
4 4 4 4 4 4 4 4 3 3 3 3 3 2 2 2 2 2 2 1 3 2 2 3 3 4 2 2 2 2 1 2 3 4 4 4 3 4 4 4 4 2 2 2
4 4 5 4 4 4 4 4 4 4 3 3 2 2 2 2 2 2 1 2 1 2 2 3 3 3 3 3 4 4 4 4 5 5 6 5 5 5 5 5 5 7 2 2
4 6 4 4 4 4 4 4 4 3 3 3 3 2 2 2 2 2 3 2 2 3 3 3 4 4 4 4 5 5 5 6 7 7 6 6 7 7 6 5 6 7 8 8